Wind_Speed
66 67 69 74 76 82 82 80 76 73 80 81 81 77 77 79 77 73 69 66 59 58 59 57 59 61 63 68 68 65 65 66 69 70 72 68 70 71 73 75 75 72 74
58 58 63 63 65 71 77 78 76 73 76 82 84 79 74 77 76 77 73 66 63 63 60 61 59 58 62 66 61 66 70 72 74 76 80 78 86 80 77 75 72 75 78
46 51 58 61 63 62 66 70 74 73 77 81 81 78 75 74 74 73 71 69 67 68 66 68 68 69 70 69 65 63 78 78 80 86 85 86 84 80 80 76 78 80 83
43 49 54 58 57 59 58 60 65 64 69 69 74 63 75 77 74 75 74 72 76 74 72 67 70 72 79 81 81 83 83 86 85 88 85 85 85 83 84 83 85 89 89
38 42 48 48 49 46 49 55 51 56 40 48 57 62 62 79 72 75 78 79 74 82 77 76 82 79 79 81 80 80 83 84 78 80 92 92 88 92 87 89 91 93 91
37 39 39 40 39 40 38 40 45 45 45 47 50 63 69 76 76 76 78 80 81 81 81 84 81 87 79 83 79 84 88 89 97 102 100 90 92 93 92 93 96 93 92
31 35 36 37 36 35 34 37 43 44 49 54 64 65 67 77 81 89 86 81 81 83 87 86 82 83 87 88 90 94 98 101 99 98 90 90 93 95 93 93 97 101 102
29 30 33 36 38 39 40 44 45 50 55 62 66 64 70 73 80 88 92 93 91 97 95 92 97 95 93 93 95 98 100 101 104 102 100 99 99 97 100 105 107 106 105
28 31 33 33 32 32 33 35 43 51 52 58 64 65 67 77 82 83 82 84 89 87 89 91 94 97 97 100 99 96 98 103 109 107 107 109 108 110 111 110 108 109 109
29 29 30 34 35 37 40 41 44 50 55 58 58 62 72 78 76 85 88 91 95 97 98 97 98 101 103 101 105 111 114 110 107 110 113 114 112 112 114 115 110 109 111
31 32 34 32 35 40 44 49 55 58 56 59 65 72 76 77 81 86 90 93 97 100 106 107 106 107 107 112 113 112 112 111 111 113 113 114 118 118 117 116 117 114 111
36 37 39 40 44 43 46 51 55 61 65 70 73 76 81 87 90 93 96 98 100 105 110 111 112 115 114 113 114 116 118 116 115 115 116 119 120 120 120 115 115 117 116
36 36 43 44 47 52 55 59 64 67 70 75 77 81 87 93 99 102 104 106 111 106 112 115 114 115 115 115 117 119 119 121 119 118 119 119 118 121 122 125 125 125 126
45 45 45 48 54 59 62 65 68 73 78 83 89 93 96 102 99 102 103 109 116 117 116 121 120 119 118 119 122 121 118 121 124 124 125 125 125 127 134 135 134 133 136
51 53 55 61 62 65 71 71 81 89 86 91 99 104 113 118 122 123 125 126 125 127 131 133 131 130 128 129 131 130 131 133 134 138 140 139 140 142 143 145 141 142 146
51 59 63 67 72 75 81 85 88 91 97 103 106 109 119 124 124 129 136 141 146 148 148 146 142 147 151 154 154 150 149 150 152 151 152 151 152 155 158 158 156 153 154
29 34 37 41 45 53 56 63 63 71 76 83 91 94 100 106 111 121 130 133 133 153 162 157 141 135 135 141 150 158 159 159 161 171 171 168 162 157 155 153 150 146 140
37 37 42 44 37 44 47 44 52 61 67 72 82 82 88 86 93 91 98 103 106 108 110 113 123 125 118 119 120 125 128 124 121 125 125 122 120 124 135 132 131 128 124
37 42 39 37 42 43 48 49 58 63 68 67 69 68 74 73 75 75 76 80 87 96 103 101 98 101 105 112 113 110 107 104 102 102 106 108 114 121 125 127 121 120 122
47 51 51 54 52 61 62 64 75 79 83 83 81 83 83 81 80 72 69 71 72 76 81 83 85 86 87 88 90 91 91 91 91 92 93 94 94 96 101 104 107 109 113
60 61 65 63 66 69 76 81 86 91 89 93 90 93 90 89 77 71 67 64 65 66 70 72 73 74 75 77 78 79 80 81 81 81 81 82 82 84 86 89 92 94 98
64 68 72 77 80 80 81 86 91 94 96 100 95 96 92 85 76 70 67 63 61 61 62 64 64 65 67 68 69 70 71 71 71 71 71 71 73 75 78 80 82 83 85
71 75 79 82 85 82 87 89 95 99 102 106 103 99 94 82 75 68 65 63 60 57 55 57 58 58 59 59 60 61 62 62 62 62 62 62 62 64 67 69 72 75 79
75 78 83 87 87 89 92 95 100 101 104 108 103 101 92 84 77 70 64 61 59 55 52 52 53 53 52 52 53 54 55 55 55 55 56 56 56 56 57 59 62 65 68
78 83 87 91 92 96 97 102 103 108 106 108 105 101 91 82 75 69 64 59 56 54 52 51 50 48 47 47 48 51 51 49 49 49 50 50 51 51 52 53 54 56 57
82 86 90 92 93 99 100 106 108 110 112 108 105 99 88 83 75 69 64 58 55 53 51 49 48 46 44 45 47 47 45 45 45 45 44 45 46 47 49 50 50 51 52
Wind_Direction
236 234 234 229 227 229 233 233 233 231 232 235 235 234 228 234 237 238 238 242 245 249 253 258 260 262 266 268 276 276 275 277 277 281 284 284 287 291 294 298 301 301 302
231 227 226 226 227 225 228 232 233 232 232 234 234 232 232 234 235 235 238 243 244 245 251 253 258 264 265 270 276 277 275 272 275 282 279 283 287 294 294 296 299 299 302
216 215 217 219 223 226 226 229 234 233 234 234 236 239 233 233 233 239 240 240 242 245 253 253 260 266 270 267 263 274 272 270 274 276 284 285 289 291 294 294 295 296 299
199 204 207 213 218 221 223 229 232 234 239 239 240 238 232 233 234 239 242 244 247 246 249 264 267 270 272 271 270 272 279 279 278 278 284 285 285 286 290 293 293 295 300
181 196 205 210 218 223 223 226 234 234 240 239 235 226 220 227 230 239 243 242 250 249 253 257 261 266 269 268 275 278 279 273 274 277 285 287 281 288 288 290 294 297 300
171 184 196 206 214 217 223 227 230 235 240 234 235 237 232 231 232 240 246 247 253 258 260 263 261 267 265 270 270 275 274 277 278 279 284 283 283 285 289 292 295 296 295
181 183 189 202 207 210 216 220 223 225 223 229 231 241 236 235 234 238 245 247 249 255 257 261 262 267 265 265 269 273 276 276 278 280 278 278 279 284 287 286 285 289 289
177 187 199 209 214 218 217 219 226 227 229 231 231 237 236 235 238 241 245 248 253 255 256 262 266 268 264 264 267 272 273 273 276 274 275 281 282 282 281 284 285 284 287
186 193 198 206 217 226 232 232 234 232 238 241 244 244 244 245 243 247 250 249 249 257 255 259 261 264 265 269 271 271 270 271 275 275 277 278 282 282 281 282 284 289 287
202 208 220 230 227 222 225 223 229 229 239 251 249 250 243 249 251 247 246 249 253 257 261 265 266 267 270 271 271 272 276 278 277 276 281 282 281 282 283 286 287 288 291
209 213 222 221 226 227 230 231 235 244 248 249 248 247 249 251 251 253 254 258 261 262 264 268 268 271 271 274 275 275 276 276 278 279 280 280 283 286 284 287 288 287 289
228 228 231 232 234 245 241 246 246 245 249 253 257 258 256 256 259 261 261 261 263 264 267 268 268 270 270 271 272 272 274 275 276 276 277 279 281 284 285 285 284 286 289
242 254 253 252 250 250 247 249 250 251 257 258 259 261 262 262 259 259 259 260 263 266 265 266 266 266 265 266 268 270 272 276 278 279 280 279 279 280 280 282 284 287 286
254 264 256 258 257 256 259 257 257 255 257 259 260 258 260 262 264 264 263 262 262 265 263 262 265 267 269 269 268 269 270 273 275 277 279 278 278 278 280 283 283 283 284
268 273 266 266 270 260 271 274 268 264 264 270 267 267 261 259 260 261 261 260 262 264 264 263 265 265 266 268 269 270 270 270 273 274 276 277 278 279 279 279 281 282 282
275 270 271 275 272 269 276 277 276 275 275 274 274 272 271 267 266 265 265 265 265 264 262 264 265 266 265 264 265 267 269 270 270 270 272 275 276 276 276 277 279 278 280
281 286 296 284 284 280 278 274 276 279 277 272 271 273 273 274 273 272 273 273 271 267 268 273 276 274 272 270 268 267 269 268 269 267 267 273 272 273 273 275 275 276 279
283 282 290 280 295 284 282 299 286 284 279 278 272 278 279 283 274 278 275 275 275 275 274 275 276 276 278 275 274 274 272 270 269 268 268 269 269 271 272 272 273 274 275
303 283 308 310 320 321 322 315 320 320 320 307 302 302 302 302 302 293 287 284 280 275 275 276 276 274 273 272 274 275 274 273 272 271 270 268 265 265 267 269 270 271 272
322 328 331 333 331 333 335 333 335 334 333 329 326 321 318 316 313 305 298 293 288 285 282 280 279 277 275 273 273 273 273 274 273 272 270 268 267 265 264 264 266 266 266
330 331 331 334 332 335 336 338 338 337 334 333 328 324 324 321 316 311 304 297 292 288 284 282 280 278 277 276 275 274 273 272 271 271 270 269 267 265 264 264 264 264 264
327 329 331 330 333 332 333 336 337 336 336 332 328 324 326 322 318 315 309 303 298 294 289 286 283 281 279 277 275 274 273 272 271 270 268 267 265 263 262 261 261 261 260
324 326 328 330 329 331 331 333 334 335 336 335 328 327 327 322 320 318 313 308 303 299 293 288 285 282 279 277 276 274 273 272 271 270 269 268 265 264 262 260 259 257 257
322 323 324 326 326 330 330 331 334 336 337 334 329 328 329 325 322 320 316 312 307 302 296 291 287 285 282 279 277 274 272 270 269 268 267 266 264 262 261 260 258 257 257
319 320 322 323 324 327 328 330 331 335 337 333 328 328 328 325 323 321 318 314 309 304 299 295 292 288 285 282 277 274 272 269 268 265 264 264 264 262 261 259 259 258 258
315 317 320 320 322 325 326 328 330 333 335 332 327 328 328 326 323 321 318 316 311 307 303 300 296 292 288 283 277 275 274 271 269 267 266 265 264 263 262 260 260 259 258
Height
10521 10531 10541 10553 10565 10577 10587 10597 10609 10621 10629 10638 10644 10651 10660 10670 10678 10684 10690 10694 10697 10699 10701 10704 10705 10703 10704 10702 10702 10702 10701 10699 10695 10690 10687 10691 10691 10689 10686 10685 10681 10677 10674
10509 10522 10532 10543 10554 10563 10573 10585 10596 10608 10617 10625 10631 10641 10650 10660 10667 10671 10678 10683 10686 10688 10689 10691 10691 10691 10690 10689 10688 10687 10686 10682 10680 10673 10671 10673 10677 10674 10671 10667 10664 10661 10656
10495 10507 10520 10532 10543 10554 10564 10575 10586 10596 10605 10613 10621 10632 10644 10650 10656 10660 10666 10669 10672 10673 10674 10676 10675 10674 10674 10673 10673 10672 10665 10664 10664 10658 10655 10655 10655 10655 10653 10651 10648 10644 10639
10488 10500 10511 10524 10535 10546 10559 10570 10577 10588 10596 10605 10614 10625 10633 10640 10645 10649 10653 10657 10658 10658 10658 10661 10661 10659 10657 10657 10655 10654 10649 10647 10646 10641 10641 10640 10639 10638 10636 10632 10628 10625 10623
10486 10498 10512 10526 10537 10548 10556 10564 10574 10584 10592 10598 10607 10615 10621 10626 10634 10637 10640 10642 10642 10643 10643 10644 10644 10643 10643 10643 10639 10636 10635 10634 10632 10628 10625 10623 10621 10621 10618 10613 10609 10605 10602
10487 10500 10515 10526 10536 10544 10552 10560 10570 10578 10588 10595 10603 10610 10615 10622 10625 10627 10628 10628 10627 10628 10628 10627 10629 10629 10629 10629 10624 10620 10619 10616 10615 10614 10608 10604 10599 10599 10597 10593 10588 10586 10584
10500 10510 10517 10523 10533 10542 10552 10559 10566 10574 10581 10589 10594 10599 10604 10607 10610 10611 10611 10613 10614 10612 10612 10610 10613 10611 10610 10611 10609 10604 10600 10596 10595 10591 10591 10588 10583 10580 10580 10572 10570 10568 10567
10511 10517 10523 10530 10538 10545 10551 10556 10564 10571 10575 10578 10584 10588 10592 10596 10598 10598 10597 10597 10595 10596 10596 10595 10591 10592 10590 10589 10586 10583 10580 10575 10573 10567 10570 10565 10561 10557 10557 10554 10551 10548 10546
10516 10520 10527 10533 10540 10546 10551 10559 10563 10566 10570 10573 10578 10581 10584 10586 10584 10582 10583 10581 10580 10578 10576 10572 10569 10571 10569 10566 10563 10557 10554 10550 10548 10543 10540 10538 10539 10534 10528 10526 10524 10522 10517
10520 10526 10530 10535 10541 10545 10550 10555 10559 10564 10565 10564 10564 10567 10569 10568 10567 10567 10564 10561 10559 10556 10556 10551 10546 10542 10541 10538 10534 10531 10529 10526 10522 10518 10514 10509 10505 10502 10495 10492 10493 10487 10486
10525 10529 10532 10536 10539 10545 10550 10553 10554 10554 10553 10554 10553 10550 10548 10546 10544 10542 10540 10537 10533 10529 10526 10521 10520 10516 10511 10509 10507 10505 10500 10496 10492 10486 10483 10478 10473 10470 10465 10463 10463 10460 10460
10527 10529 10531 10536 10538 10540 10541 10543 10543 10541 10540 10537 10534 10532 10529 10525 10521 10518 10513 10509 10506 10503 10498 10495 10492 10487 10484 10481 10478 10474 10470 10470 10467 10463 10461 10456 10450 10444 10439 10437 10435 10434 10431
10525 10526 10528 10530 10531 10531 10530 10529 10526 10526 10525 10523 10518 10512 10509 10503 10497 10491 10486 10482 10478 10472 10468 10465 10461 10457 10454 10452 10449 10445 10445 10439 10436 10433 10431 10428 10424 10417 10409 10410 10414 10413 10407
10516 10518 10519 10517 10518 10516 10515 10512 10511 10507 10503 10499 10493 10488 10481 10475 10467 10459 10452 10448 10443 10437 10433 10430 10427 10425 10421 10419 10417 10413 10412 10408 10406 10403 10400 10397 10396 10392 10383 10386 10383 10383 10382
10508 10508 10507 10506 10503 10502 10497 10494 10489 10484 10479 10473 10464 10458 10449 10439 10432 10424 10415 10406 10401 10399 10397 10393 10390 10388 10388 10384 10381 10380 10380 10377 10375 10372 10367 10364 10361 10357 10355 10352 10354 10354 10351
10500 10497 10494 10492 10487 10483 10477 10469 10465 10458 10452 10445 10435 10422 10414 10406 10397 10387 10380 10370 10361 10354 10348 10345 10347 10345 10346 10341 10342 10342 10338 10336 10337 10336 10334 10332 10329 10323 10317 10314 10314 10315 10321
10488 10486 10482 10475 10469 10462 10455 10447 10438 10432 10421 10412 10401 10394 10379 10366 10356 10349 10339 10324 10310 10308 10302 10294 10292 10288 10285 10289 10288 10291 10292 10291 10290 10290 10296 10294 10289 10288 10279 10281 10280 10281 10281
10480 10476 10469 10461 10452 10444 10435 10425 10418 10409 10398 10388 10377 10363 10348 10340 10328 10314 10297 10284 10270 10264 10256 10248 10239 10234 10233 10233 10235 10236 10238 10241 10242 10245 10248 10249 10247 10248 10241 10248 10250 10249 10249
10466 10459 10449 10440 10431 10422 10413 10404 10392 10379 10367 10355 10345 10334 10319 10304 10290 10273 10259 10247 10235 10227 10221 10213 10206 10201 10196 10194 10191 10189 10190 10191 10193 10197 10202 10207 10211 10212 10212 10210 10216 10215 10216
10444 10437 10429 10420 10412 10404 10392 10381 10368 10355 10342 10329 10314 10297 10281 10267 10251 10238 10225 10212 10204 10193 10184 10178 10173 10169 10165 10162 10159 10157 10155 10154 10155 10158 10162 10167 10171 10173 10176 10178 10179 10183 10187
10426 10418 10410 10402 10392 10382 10370 10359 10348 10334 10320 10305 10288 10271 10256 10239 10221 10208 10198 10187 10177 10168 10159 10152 10145 10140 10135 10131 10129 10128 10126 10126 10127 10128 10131 10133 10136 10138 10140 10143 10146 10151 10155
10410 10402 10393 10383 10373 10362 10352 10341 10329 10315 10301 10284 10266 10248 10233 10215 10200 10184 10172 10162 10152 10143 10134 10126 10119 10114 10109 10106 10103 10101 10100 10100 10100 10101 10103 10104 10106 10109 10111 10114 10117 10122 10127
10393 10385 10376 10367 10356 10345 10334 10322 10309 10296 10280 10263 10243 10225 10208 10191 10176 10162 10150 10139 10129 10121 10113 10105 10099 10094 10089 10085 10082 10080 10078 10077 10077 10077 10077 10078 10080 10082 10084 10088 10091 10096 10099
10378 10369 10360 10351 10339 10328 10315 10302 10290 10275 10258 10240 10219 10201 10185 10169 10154 10141 10129 10119 10109 10099 10092 10086 10080 10075 10070 10065 10061 10059 10057 10056 10057 10057 10057 10057 10059 10061 10063 10065 10067 10071 10074
10362 10353 10343 10332 10321 10309 10296 10281 10268 10253 10236 10219 10198 10182 10165 10149 10134 10121 10110 10099 10090 10082 10073 10066 10060 10056 10051 10046 10043 10039 10038 10038 10038 10039 10039 10040 10040 10042 10043 10045 10048 10050 10052
10347 10337 10328 10317 10304 10292 10278 10264 10249 10235 10218 10199 10178 10163 10146 10132 10117 10103 10091 10081 10072 10064 10055 10047 10042 10037 10032 10028 10024 10022 10022 10021 10020 10020 10022 10022 10022 10023 10024 10026 10028 10030 10033